{"data":{"norad_id":65820,"intl_designator":"2025-220D","name":"HULIANWANG DIGUI-85","alt_names":[],"object_type":"PAYLOAD","status":"ACTIVE","operator":null,"country":"PRC","launch_date":"2025-09-27","launch_site_code":"TAISC","launch_vehicle":null,"mission":null,"orbit_class":"UNKNOWN","rcs_meters":null,"size_class":null,"mass_kg":null,"dimensions":null,"purposes":[],"wikipedia_slug":null,"has_3d_model":false,"image_url":null,"decayed_at":null,"tle_current":{"epoch":"2026-09-20T06:10:06.409632Z","epoch_age_seconds":167788,"freshness":"FRESH","line1":"1 65820U 25220D   26263.25701863  .00000057  00000+0  99599-4 0  9999","line2":"2 65820  86.5057  11.8193 0001401  86.6819 273.4475 13.24410186 47509","mean_motion":13.24410186,"eccentricity":0.0001401,"inclination_deg":86.5057,"raan_deg":11.8193,"arg_perigee_deg":86.6819,"mean_anomaly_deg":273.4475,"bstar":9.9599e-5,"rev_number":4750,"period_min":108.72764459394,"perigee_km":1166.8642763221,"apogee_km":1168.9786819079,"semimajor_km":7546.058479115,"source":"CELESTRAK","updated_at":"2026-09-21T09:00:15.572240Z"}}}